Year,Month,Day,Hour,Minute,Value (Times are PST for temperature in C)
2024,04,18,00,00,8.10
2024,04,18,00,01,8.10
2024,04,18,00,02,8.10
2024,04,18,00,03,8.20
2024,04,18,00,04,8.20
2024,04,18,00,05,8.20
2024,04,18,00,06,8.20
2024,04,18,00,07,8.20
2024,04,18,00,08,8.20
2024,04,18,00,09,8.20
2024,04,18,00,10,8.20
2024,04,18,00,11,8.20
2024,04,18,00,12,8.10
2024,04,18,00,13,8.10
2024,04,18,00,14,8.10
2024,04,18,00,15,8.10
2024,04,18,00,16,8.10
2024,04,18,00,17,8.10
2024,04,18,00,18,8.10
2024,04,18,00,19,8.10
2024,04,18,00,20,8.10
2024,04,18,00,21,8.00
2024,04,18,00,22,8.00
2024,04,18,00,23,8.00
2024,04,18,00,24,8.00
2024,04,18,00,25,8.00
2024,04,18,00,26,8.00
2024,04,18,00,27,8.00
2024,04,18,00,28,8.00
2024,04,18,00,29,7.90
2024,04,18,00,30,7.90
2024,04,18,00,31,7.90
2024,04,18,00,32,7.90
2024,04,18,00,33,7.80
2024,04,18,00,34,7.80
2024,04,18,00,35,7.80
2024,04,18,00,36,7.80
2024,04,18,00,37,7.80
2024,04,18,00,38,7.80
2024,04,18,00,39,7.80
2024,04,18,00,40,7.70
2024,04,18,00,41,7.70
2024,04,18,00,42,7.70
2024,04,18,00,43,7.70
2024,04,18,00,44,7.70
2024,04,18,00,45,7.70
2024,04,18,00,46,7.60
2024,04,18,00,47,7.60
2024,04,18,00,48,7.60
2024,04,18,00,49,7.60
2024,04,18,00,50,7.60
2024,04,18,00,51,7.60
2024,04,18,00,52,7.60
2024,04,18,00,53,7.60
2024,04,18,00,54,7.60
2024,04,18,00,55,7.60
2024,04,18,00,56,7.60
2024,04,18,00,57,7.60
2024,04,18,00,58,7.60
2024,04,18,00,59,7.60
2024,04,18,01,00,7.60
2024,04,18,01,01,7.60
2024,04,18,01,02,7.60
2024,04,18,01,03,7.60
2024,04,18,01,04,7.60
2024,04,18,01,05,7.60
2024,04,18,01,06,7.60
2024,04,18,01,07,7.60
2024,04,18,01,08,7.60
2024,04,18,01,09,7.70
2024,04,18,01,10,7.70
2024,04,18,01,11,7.70
2024,04,18,01,12,7.70
2024,04,18,01,13,7.70
2024,04,18,01,14,7.70
2024,04,18,01,15,7.80
2024,04,18,01,16,7.80
2024,04,18,01,17,7.80
2024,04,18,01,18,7.90
2024,04,18,01,19,7.90
2024,04,18,01,20,7.90
2024,04,18,01,21,8.00
2024,04,18,01,22,8.00
2024,04,18,01,23,8.00
2024,04,18,01,24,8.00
2024,04,18,01,25,8.10
2024,04,18,01,26,8.10
2024,04,18,01,27,8.10
2024,04,18,01,28,8.10
2024,04,18,01,29,8.10
2024,04,18,01,30,8.10
2024,04,18,01,31,8.00
2024,04,18,01,32,7.90
2024,04,18,01,33,7.90
2024,04,18,01,34,7.80
2024,04,18,01,35,7.70
2024,04,18,01,36,7.60
2024,04,18,01,37,7.50
2024,04,18,01,38,7.50
2024,04,18,01,39,7.40
2024,04,18,01,40,7.40
2024,04,18,01,41,7.40
2024,04,18,01,42,7.40
2024,04,18,01,43,7.40
2024,04,18,01,44,7.50
2024,04,18,01,45,7.60
2024,04,18,01,46,7.60
2024,04,18,01,47,7.70
2024,04,18,01,48,7.80
2024,04,18,01,49,7.80
2024,04,18,01,50,7.90
2024,04,18,01,51,7.90
2024,04,18,01,52,7.90
2024,04,18,01,53,7.90
2024,04,18,01,54,7.80
2024,04,18,01,55,7.70
2024,04,18,01,56,7.60
2024,04,18,01,57,7.50
2024,04,18,01,58,7.40
2024,04,18,01,59,7.30
2024,04,18,02,00,7.30
2024,04,18,02,01,7.30
2024,04,18,02,02,7.20
2024,04,18,02,03,7.20
2024,04,18,02,04,7.20
2024,04,18,02,05,7.10
2024,04,18,02,06,7.10
2024,04,18,02,07,7.10
2024,04,18,02,08,7.10
2024,04,18,02,09,7.00
2024,04,18,02,10,7.00
2024,04,18,02,11,6.90
2024,04,18,02,12,6.90
2024,04,18,02,13,6.90
2024,04,18,02,14,6.90
2024,04,18,02,15,6.80
2024,04,18,02,16,6.80
2024,04,18,02,17,6.80
2024,04,18,02,18,6.70
2024,04,18,02,19,6.70
2024,04,18,02,20,6.70
2024,04,18,02,21,6.70
2024,04,18,02,22,6.70
2024,04,18,02,23,6.60
2024,04,18,02,24,6.60
2024,04,18,02,25,6.60
2024,04,18,02,26,6.60
2024,04,18,02,27,6.70
2024,04,18,02,28,6.70
2024,04,18,02,29,6.70
2024,04,18,02,30,6.70
2024,04,18,02,31,6.70
2024,04,18,02,32,6.70
2024,04,18,02,33,6.70
2024,04,18,02,34,6.70
2024,04,18,02,35,6.70
2024,04,18,02,36,6.70
2024,04,18,02,37,6.70
2024,04,18,02,38,6.70
2024,04,18,02,39,6.80
2024,04,18,02,40,6.80
2024,04,18,02,41,6.80
2024,04,18,02,42,6.80
2024,04,18,02,43,6.80
2024,04,18,02,44,6.80
2024,04,18,02,45,6.80
2024,04,18,02,46,6.90
2024,04,18,02,47,6.90
2024,04,18,02,48,6.90
2024,04,18,02,49,7.00
2024,04,18,02,50,7.00
2024,04,18,02,51,7.10
2024,04,18,02,52,7.20
2024,04,18,02,53,7.20
2024,04,18,02,54,7.20
2024,04,18,02,55,7.20
2024,04,18,02,56,7.10
2024,04,18,02,57,7.10
2024,04,18,02,58,7.20
2024,04,18,02,59,7.20
2024,04,18,03,00,7.30
2024,04,18,03,01,7.30
2024,04,18,03,02,7.30
2024,04,18,03,03,7.40
2024,04,18,03,04,7.40
2024,04,18,03,05,7.40
2024,04,18,03,06,7.40
2024,04,18,03,07,7.40
2024,04,18,03,08,7.40
2024,04,18,03,09,7.40
2024,04,18,03,10,7.40
2024,04,18,03,11,7.40
2024,04,18,03,12,7.40
2024,04,18,03,13,7.30
2024,04,18,03,14,7.30
2024,04,18,03,15,7.30
2024,04,18,03,16,7.30
2024,04,18,03,17,7.30
2024,04,18,03,18,7.20
2024,04,18,03,19,7.20
2024,04,18,03,20,7.20
2024,04,18,03,21,7.10
2024,04,18,03,22,7.10
2024,04,18,03,23,7.00
2024,04,18,03,24,7.00
2024,04,18,03,25,6.90
2024,04,18,03,26,6.90
2024,04,18,03,27,6.90
2024,04,18,03,28,6.90
2024,04,18,03,29,6.90
2024,04,18,03,30,6.90
2024,04,18,03,31,6.80
2024,04,18,03,32,6.80
2024,04,18,03,33,6.80
2024,04,18,03,34,6.80
2024,04,18,03,35,6.80
2024,04,18,03,36,6.80
2024,04,18,03,37,6.80
2024,04,18,03,38,6.80
2024,04,18,03,39,6.80
2024,04,18,03,40,6.80
2024,04,18,03,41,6.90
2024,04,18,03,42,7.00
2024,04,18,03,43,7.00
2024,04,18,03,44,7.10
2024,04,18,03,45,7.20
2024,04,18,03,46,7.30
2024,04,18,03,47,7.50
2024,04,18,03,48,7.60
2024,04,18,03,49,7.80
2024,04,18,03,50,8.00
2024,04,18,03,51,8.00
2024,04,18,03,52,8.10
2024,04,18,03,53,8.10
2024,04,18,03,54,8.10
2024,04,18,03,55,8.00
2024,04,18,03,56,8.00
2024,04,18,03,57,7.90
2024,04,18,03,58,7.80
2024,04,18,03,59,7.70
2024,04,18,04,00,7.60
2024,04,18,04,01,7.50
2024,04,18,04,02,7.40
2024,04,18,04,03,7.30
2024,04,18,04,04,7.20
2024,04,18,04,05,7.10
2024,04,18,04,06,7.00
2024,04,18,04,07,6.90
2024,04,18,04,08,6.90
2024,04,18,04,09,6.80
2024,04,18,04,10,6.80
2024,04,18,04,11,6.80
2024,04,18,04,12,6.70
2024,04,18,04,13,6.70
2024,04,18,04,14,6.70
2024,04,18,04,15,6.60
2024,04,18,04,16,6.60
2024,04,18,04,17,6.60
2024,04,18,04,18,6.50
2024,04,18,04,19,6.40
2024,04,18,04,20,6.40
2024,04,18,04,21,6.40
2024,04,18,04,22,6.40
2024,04,18,04,23,6.40
2024,04,18,04,24,6.30
2024,04,18,04,25,6.30
2024,04,18,04,26,6.30
2024,04,18,04,27,6.20
2024,04,18,04,28,6.20
2024,04,18,04,29,6.20
2024,04,18,04,30,6.20
2024,04,18,04,31,6.20
2024,04,18,04,32,6.20
2024,04,18,04,33,6.10
2024,04,18,04,34,6.10
2024,04,18,04,35,6.10
2024,04,18,04,36,6.10
2024,04,18,04,37,6.10
2024,04,18,04,38,6.00
2024,04,18,04,39,6.00
2024,04,18,04,40,6.00
2024,04,18,04,41,6.00
2024,04,18,04,42,6.00
2024,04,18,04,43,6.00
2024,04,18,04,44,6.00
2024,04,18,04,45,5.90
2024,04,18,04,46,5.90
2024,04,18,04,47,5.90
2024,04,18,04,48,5.90
2024,04,18,04,49,5.90
2024,04,18,04,50,5.90
2024,04,18,04,51,5.90
2024,04,18,04,52,5.90
2024,04,18,04,53,5.90
2024,04,18,04,54,5.90
2024,04,18,04,55,5.90
2024,04,18,04,56,5.90
2024,04,18,04,57,5.90
2024,04,18,04,58,5.90
2024,04,18,04,59,5.90
2024,04,18,05,00,5.90
2024,04,18,05,01,5.90
2024,04,18,05,02,5.90
2024,04,18,05,03,5.80
2024,04,18,05,04,5.80
2024,04,18,05,05,5.80
2024,04,18,05,06,5.80
2024,04,18,05,07,5.80
2024,04,18,05,08,5.80
2024,04,18,05,09,5.70
2024,04,18,05,10,5.70
2024,04,18,05,11,5.70
2024,04,18,05,12,5.70
2024,04,18,05,13,5.70
2024,04,18,05,14,5.70
2024,04,18,05,15,5.70
2024,04,18,05,16,5.60
2024,04,18,05,17,5.70
2024,04,18,05,18,5.70
2024,04,18,05,19,5.60
2024,04,18,05,20,5.70
2024,04,18,05,21,5.70
2024,04,18,05,22,5.70
2024,04,18,05,23,5.70
2024,04,18,05,24,5.60
2024,04,18,05,25,5.60
2024,04,18,05,26,5.60
2024,04,18,05,27,5.60
2024,04,18,05,28,5.60
2024,04,18,05,29,5.60
2024,04,18,05,30,5.60
2024,04,18,05,31,5.60
2024,04,18,05,32,5.60
2024,04,18,05,33,5.60
2024,04,18,05,34,5.60
2024,04,18,06,41,6.20
2024,04,18,06,42,6.20
2024,04,18,06,43,6.20
2024,04,18,06,44,6.30
2024,04,18,06,45,6.30
2024,04,18,06,46,6.30
2024,04,18,06,47,6.30
2024,04,18,06,48,6.40
2024,04,18,06,49,6.40
2024,04,18,06,50,6.40
2024,04,18,06,51,6.40
2024,04,18,06,52,6.40
2024,04,18,06,53,6.40
2024,04,18,06,54,6.40
2024,04,18,06,55,6.40
2024,04,18,06,56,6.50
2024,04,18,06,57,6.60
2024,04,18,06,58,6.70
2024,04,18,06,59,6.80
2024,04,18,07,00,7.00
2024,04,18,07,01,7.20
2024,04,18,07,02,7.40
2024,04,18,07,03,7.50
2024,04,18,07,04,7.60
2024,04,18,07,05,7.70
2024,04,18,07,06,7.80
2024,04,18,07,07,7.90
2024,04,18,07,08,8.00
2024,04,18,07,09,8.00
2024,04,18,07,10,8.00
2024,04,18,07,11,8.10
2024,04,18,07,12,8.10
2024,04,18,07,13,8.10
2024,04,18,07,14,8.20
2024,04,18,07,15,8.30
2024,04,18,07,16,8.30
2024,04,18,07,17,8.30
2024,04,18,07,18,8.30
2024,04,18,07,19,8.30
2024,04,18,07,20,8.30
2024,04,18,07,21,8.30
2024,04,18,07,22,8.30
2024,04,18,07,23,8.30
2024,04,18,07,24,8.30
2024,04,18,07,25,8.40
2024,04,18,07,26,8.40
2024,04,18,07,27,8.40
2024,04,18,07,28,8.50
2024,04,18,07,29,8.60
2024,04,18,07,30,8.60
2024,04,18,07,31,8.60
2024,04,18,07,32,8.70
2024,04,18,07,33,8.70
2024,04,18,07,34,8.70
2024,04,18,07,35,8.70
2024,04,18,07,36,8.70
2024,04,18,07,37,8.70
2024,04,18,07,38,8.70
2024,04,18,07,39,8.70
2024,04,18,07,40,8.70
2024,04,18,07,41,8.70
2024,04,18,07,42,8.70
2024,04,18,07,43,8.70
2024,04,18,07,44,8.70
2024,04,18,07,45,8.70
2024,04,18,07,46,8.60
2024,04,18,07,47,8.50
2024,04,18,07,48,8.40
2024,04,18,07,49,8.30
2024,04,18,07,50,8.40
2024,04,18,07,51,8.40
2024,04,18,07,52,8.40
2024,04,18,07,53,8.40
2024,04,18,07,54,8.50
2024,04,18,07,55,8.50
2024,04,18,07,56,8.60
2024,04,18,07,57,8.60
2024,04,18,07,58,8.60
2024,04,18,07,59,8.60
2024,04,18,08,00,8.70
2024,04,18,08,01,8.70
2024,04,18,08,02,8.60
2024,04,18,08,03,8.60
2024,04,18,08,04,8.60
2024,04,18,08,05,8.60
2024,04,18,08,06,8.60
2024,04,18,08,07,8.70
2024,04,18,08,08,8.70
2024,04,18,08,09,8.70
2024,04,18,08,10,8.70
2024,04,18,08,11,8.70
2024,04,18,08,12,8.70
2024,04,18,08,13,8.70
2024,04,18,08,14,8.70
2024,04,18,08,15,8.80
2024,04,18,08,16,8.90
2024,04,18,08,17,8.90
2024,04,18,08,18,9.00
2024,04,18,08,19,9.00
2024,04,18,08,20,9.10
2024,04,18,08,21,9.10
2024,04,18,08,22,9.20
2024,04,18,08,23,9.20
2024,04,18,08,24,9.20
2024,04,18,08,25,9.20
2024,04,18,08,26,9.20
2024,04,18,08,27,9.20
2024,04,18,08,28,9.30
2024,04,18,08,29,9.30
2024,04,18,08,30,9.30
2024,04,18,08,31,9.30
2024,04,18,08,32,9.30
2024,04,18,08,33,9.40
2024,04,18,08,34,9.40
2024,04,18,08,35,9.40
2024,04,18,08,36,9.30
2024,04,18,08,37,9.20
2024,04,18,08,38,9.10
2024,04,18,08,39,9.20
2024,04,18,08,40,9.20
2024,04,18,08,41,9.20
2024,04,18,08,42,9.30
2024,04,18,08,43,9.30
2024,04,18,08,44,9.30
2024,04,18,08,45,9.30
2024,04,18,08,46,9.40
2024,04,18,08,47,9.40
2024,04,18,08,48,9.40
2024,04,18,08,49,9.40
2024,04,18,08,50,9.40
2024,04,18,08,51,9.40
2024,04,18,08,52,9.30
2024,04,18,08,53,9.30
2024,04,18,08,54,9.30
2024,04,18,08,55,9.30
2024,04,18,08,56,9.30
2024,04,18,08,57,9.30
2024,04,18,08,58,9.30
2024,04,18,08,59,9.30
2024,04,18,09,00,9.40
2024,04,18,09,01,9.40
2024,04,18,09,02,9.40
2024,04,18,09,03,9.40
2024,04,18,09,04,9.50
2024,04,18,09,05,9.50
2024,04,18,09,06,9.60
2024,04,18,09,07,9.50
2024,04,18,09,08,9.50
2024,04,18,09,09,9.60
2024,04,18,09,10,9.60
2024,04,18,09,11,9.70
2024,04,18,09,12,9.70
2024,04,18,09,13,9.80
2024,04,18,09,14,9.80
2024,04,18,09,15,9.80
2024,04,18,09,16,9.90
2024,04,18,09,17,9.90
2024,04,18,09,18,10.00
2024,04,18,09,19,10.00
2024,04,18,09,20,10.10
2024,04,18,09,21,10.10
2024,04,18,09,22,10.10
2024,04,18,09,23,10.10
2024,04,18,09,24,10.10
2024,04,18,09,25,10.00
2024,04,18,09,26,9.90
2024,04,18,09,27,9.90
2024,04,18,09,28,10.00
2024,04,18,09,29,10.00
2024,04,18,09,30,10.00
2024,04,18,09,31,10.00
2024,04,18,09,32,10.00
2024,04,18,09,33,10.10
2024,04,18,09,34,10.10
2024,04,18,09,35,10.10
2024,04,18,09,36,10.20
2024,04,18,09,37,10.20
2024,04,18,09,38,10.20
2024,04,18,09,39,10.30
2024,04,18,09,40,10.30
2024,04,18,09,41,10.30
2024,04,18,09,42,10.30
2024,04,18,09,43,10.30
2024,04,18,09,44,10.30
2024,04,18,09,45,10.20
2024,04,18,09,46,10.20
2024,04,18,09,47,10.20
2024,04,18,09,48,10.30
2024,04,18,09,49,10.40
2024,04,18,09,50,10.50
2024,04,18,09,51,10.60
2024,04,18,09,52,10.70
2024,04,18,09,53,10.70
2024,04,18,09,54,10.70
2024,04,18,09,55,10.70
2024,04,18,09,56,10.70
2024,04,18,09,57,10.70
2024,04,18,09,58,10.70
2024,04,18,09,59,10.80
2024,04,18,10,00,10.80
2024,04,18,10,01,10.80
2024,04,18,10,02,10.80
2024,04,18,10,03,10.80
2024,04,18,10,04,10.90
2024,04,18,10,05,10.80
2024,04,18,10,06,10.80
2024,04,18,10,07,10.70
2024,04,18,10,08,10.70
2024,04,18,10,09,10.70
2024,04,18,10,10,10.70
2024,04,18,10,11,10.80
2024,04,18,10,12,10.80
2024,04,18,10,13,10.80
2024,04,18,10,14,10.90
2024,04,18,10,15,10.90
2024,04,18,10,16,10.90
2024,04,18,10,17,10.90
2024,04,18,10,18,11.00
2024,04,18,10,19,11.00
2024,04,18,10,20,11.10
2024,04,18,10,21,11.10
2024,04,18,10,22,11.10
2024,04,18,10,23,11.10
2024,04,18,10,24,11.10
2024,04,18,10,25,11.10
2024,04,18,10,26,11.10
2024,04,18,10,27,11.00
2024,04,18,10,28,11.00
2024,04,18,10,29,11.00
2024,04,18,10,30,11.00
2024,04,18,10,31,11.00
2024,04,18,10,32,11.10
2024,04,18,10,33,11.10
2024,04,18,10,34,11.20
2024,04,18,10,35,11.30
2024,04,18,10,36,11.40
2024,04,18,10,37,11.40
2024,04,18,10,38,11.30
2024,04,18,10,39,11.30
2024,04,18,10,40,11.30
2024,04,18,10,41,11.40
2024,04,18,10,42,11.40
2024,04,18,10,43,11.30
2024,04,18,10,44,11.30
2024,04,18,10,45,11.30
2024,04,18,10,46,11.30
2024,04,18,10,47,11.30
2024,04,18,10,48,11.40
2024,04,18,10,49,11.40
2024,04,18,10,50,11.40
2024,04,18,10,51,11.40
2024,04,18,10,52,11.40
2024,04,18,10,53,11.40
2024,04,18,10,54,11.40
2024,04,18,10,55,11.30
2024,04,18,10,56,11.30
2024,04,18,10,57,11.30
2024,04,18,10,58,11.30
2024,04,18,10,59,11.40
2024,04,18,11,00,11.40
2024,04,18,11,01,11.50
2024,04,18,11,02,11.50
2024,04,18,11,03,11.50
2024,04,18,11,04,11.40
2024,04,18,11,05,11.40
2024,04,18,11,06,11.40
2024,04,18,11,07,11.40
2024,04,18,11,08,11.40
2024,04,18,11,09,11.40
2024,04,18,11,10,11.50
2024,04,18,11,11,11.40
2024,04,18,11,12,11.40
2024,04,18,11,13,11.40
2024,04,18,11,14,11.60
2024,04,18,11,15,11.60
2024,04,18,11,16,11.60
2024,04,18,11,17,11.50
2024,04,18,11,18,11.50
2024,04,18,11,19,11.50
2024,04,18,11,20,11.50
2024,04,18,11,21,11.60
2024,04,18,11,22,11.60
2024,04,18,11,23,11.60
2024,04,18,11,24,11.70
2024,04,18,11,25,11.70
2024,04,18,11,26,11.70
2024,04,18,11,27,11.80
2024,04,18,11,28,11.70
2024,04,18,11,29,11.70
2024,04,18,11,30,11.70
2024,04,18,11,31,11.70
2024,04,18,11,32,11.70
2024,04,18,11,33,11.70
2024,04,18,11,34,11.70
2024,04,18,11,35,11.70
2024,04,18,11,36,11.70
2024,04,18,11,37,11.70
2024,04,18,11,38,11.70
2024,04,18,11,39,11.70
2024,04,18,11,40,11.70
2024,04,18,11,41,11.80
2024,04,18,11,42,11.90
2024,04,18,11,43,11.90
2024,04,18,11,44,11.90
2024,04,18,11,45,11.90
2024,04,18,11,46,11.90
2024,04,18,11,47,11.80
2024,04,18,11,48,11.90
2024,04,18,11,49,11.90
2024,04,18,11,50,11.90
2024,04,18,11,51,12.00
2024,04,18,11,52,12.00
2024,04,18,11,53,12.10
2024,04,18,11,54,12.10
2024,04,18,11,55,12.10
2024,04,18,11,56,12.10
2024,04,18,11,57,12.10
2024,04,18,11,58,12.10
2024,04,18,11,59,12.00
2024,04,18,12,00,12.00
2024,04,18,12,01,12.00
2024,04,18,12,02,12.00
2024,04,18,12,03,12.00
2024,04,18,12,04,12.20
2024,04,18,12,05,12.20
2024,04,18,12,06,12.20
2024,04,18,12,07,12.20
2024,04,18,12,08,12.10
2024,04,18,12,09,12.10
2024,04,18,12,10,12.10
2024,04,18,12,11,12.10
2024,04,18,12,12,12.10
2024,04,18,12,13,12.10
2024,04,18,12,14,12.20
2024,04,18,12,15,12.20
2024,04,18,12,16,12.20
2024,04,18,12,17,12.20
2024,04,18,12,18,12.20
2024,04,18,12,19,12.20
2024,04,18,12,20,12.20
2024,04,18,12,21,12.10
2024,04,18,12,22,12.20
2024,04,18,12,23,12.20
2024,04,18,12,24,12.20
2024,04,18,12,25,12.20
2024,04,18,12,26,12.20
2024,04,18,12,27,12.20
2024,04,18,12,28,12.20
2024,04,18,12,29,12.20
2024,04,18,12,30,12.20
2024,04,18,12,31,12.20
2024,04,18,12,32,12.20
2024,04,18,12,33,12.20
2024,04,18,12,34,12.20
2024,04,18,12,35,12.20
2024,04,18,12,36,12.20
2024,04,18,12,37,12.20
2024,04,18,12,38,12.20
2024,04,18,12,39,12.20
2024,04,18,12,40,12.20
2024,04,18,12,41,12.20
2024,04,18,12,42,12.30
2024,04,18,12,43,12.30
2024,04,18,12,44,12.30
2024,04,18,12,45,12.30
2024,04,18,12,46,12.30
2024,04,18,12,47,12.30
2024,04,18,12,48,12.30
2024,04,18,12,49,12.30
2024,04,18,12,50,12.30
2024,04,18,12,51,12.30
2024,04,18,12,52,12.30
2024,04,18,12,53,12.30
2024,04,18,12,54,12.30
2024,04,18,12,55,12.40
2024,04,18,12,56,12.40
2024,04,18,12,57,12.40
2024,04,18,12,58,12.40
2024,04,18,12,59,12.40
2024,04,18,13,00,12.40
2024,04,18,13,01,12.40
2024,04,18,13,02,12.40
2024,04,18,13,03,12.40
2024,04,18,13,04,12.30
2024,04,18,13,05,12.40
2024,04,18,13,06,12.40
2024,04,18,13,07,12.50
2024,04,18,13,08,12.60
2024,04,18,13,09,12.60
2024,04,18,13,10,12.70
2024,04,18,13,11,12.80
2024,04,18,13,12,12.80
2024,04,18,13,13,12.80
2024,04,18,13,14,12.80
2024,04,18,13,15,12.80
2024,04,18,13,16,12.80
2024,04,18,13,17,12.80
2024,04,18,13,18,12.80
2024,04,18,13,19,12.90
2024,04,18,13,20,12.90
2024,04,18,13,21,12.90
2024,04,18,13,22,12.80
2024,04,18,13,23,12.80
2024,04,18,13,24,12.80
2024,04,18,13,25,12.80
2024,04,18,13,26,12.80
2024,04,18,13,27,12.90
2024,04,18,13,28,13.00
2024,04,18,13,29,12.90
2024,04,18,13,30,12.90
2024,04,18,13,31,12.90
2024,04,18,13,32,12.90
2024,04,18,13,33,13.00
2024,04,18,13,34,13.00
2024,04,18,13,35,13.00
2024,04,18,13,36,13.00
2024,04,18,13,37,13.00
2024,04,18,13,38,12.90
2024,04,18,13,39,12.90
2024,04,18,13,40,12.90
2024,04,18,13,41,12.90
2024,04,18,13,42,12.90
2024,04,18,13,43,12.90
2024,04,18,13,44,12.90
2024,04,18,13,45,12.90
2024,04,18,13,46,12.90
2024,04,18,13,47,12.90
2024,04,18,13,48,12.90
2024,04,18,13,49,12.90
2024,04,18,13,50,12.90
2024,04,18,13,51,12.80
2024,04,18,13,52,12.80
2024,04,18,13,53,12.80
2024,04,18,13,54,12.70
2024,04,18,13,55,12.70
2024,04,18,13,56,12.70
2024,04,18,13,57,12.70
2024,04,18,13,58,12.80
2024,04,18,13,59,12.90
2024,04,18,14,00,12.90
2024,04,18,14,01,13.00
2024,04,18,14,02,13.10
2024,04,18,14,03,13.10
2024,04,18,14,04,13.10
2024,04,18,14,05,13.10
2024,04,18,14,06,13.00
2024,04,18,14,07,13.00
2024,04,18,14,08,13.00
2024,04,18,14,09,13.00
2024,04,18,14,10,13.10
2024,04,18,14,11,13.10
2024,04,18,14,12,13.10
2024,04,18,14,13,13.10
2024,04,18,14,14,13.10
2024,04,18,14,15,13.00
2024,04,18,14,16,13.00
2024,04,18,14,17,12.90
2024,04,18,14,18,12.90
2024,04,18,14,19,12.90
2024,04,18,14,20,12.90
2024,04,18,14,21,12.90
2024,04,18,14,22,13.00
2024,04,18,14,23,13.10
2024,04,18,14,24,13.10
2024,04,18,14,25,13.20
2024,04,18,14,26,13.20
2024,04,18,14,27,13.10
2024,04,18,14,28,13.00
2024,04,18,14,29,13.00
2024,04,18,14,30,12.90
2024,04,18,14,31,13.00
2024,04,18,14,32,13.10
2024,04,18,14,33,13.20
2024,04,18,14,34,13.20
2024,04,18,14,35,13.30
2024,04,18,14,36,13.30
2024,04,18,14,37,13.30
2024,04,18,14,38,13.20
2024,04,18,14,39,13.20
2024,04,18,14,40,13.20
2024,04,18,14,41,13.10
2024,04,18,14,42,13.10
2024,04,18,14,43,13.00
2024,04,18,14,44,12.90
2024,04,18,14,45,12.90
2024,04,18,14,46,12.90
2024,04,18,14,47,12.90
2024,04,18,14,48,13.00
2024,04,18,14,49,13.00
2024,04,18,14,50,13.10
2024,04,18,14,51,13.10
2024,04,18,14,52,13.20
2024,04,18,14,53,13.20
2024,04,18,14,54,13.20
2024,04,18,14,55,13.30
2024,04,18,14,56,13.30
2024,04,18,14,57,13.30
2024,04,18,14,58,13.40
2024,04,18,14,59,13.50
2024,04,18,15,00,13.70
2024,04,18,15,01,13.80
2024,04,18,15,02,13.90
2024,04,18,15,03,13.80
2024,04,18,15,04,13.80
2024,04,18,15,05,13.90
2024,04,18,15,06,13.90
2024,04,18,15,07,14.00
2024,04,18,15,08,14.00
2024,04,18,15,09,13.90
2024,04,18,15,10,13.90
2024,04,18,15,11,13.80
2024,04,18,15,12,13.80
2024,04,18,15,13,13.80
2024,04,18,15,14,13.80
2024,04,18,15,15,13.80
2024,04,18,15,16,13.80
2024,04,18,15,17,13.90
2024,04,18,15,18,13.90
2024,04,18,15,19,13.90
2024,04,18,15,20,14.00
2024,04,18,15,21,14.00
2024,04,18,15,22,14.10
2024,04,18,15,23,14.00
2024,04,18,15,24,14.00
2024,04,18,15,25,14.00
2024,04,18,15,26,14.00
2024,04,18,15,27,14.10
2024,04,18,15,28,14.10
2024,04,18,15,29,14.10
2024,04,18,15,30,14.10
2024,04,18,15,31,14.00
2024,04,18,15,32,14.00
2024,04,18,15,33,14.00
2024,04,18,15,34,13.90
2024,04,18,15,35,13.90
2024,04,18,15,36,13.90
2024,04,18,15,37,13.90
2024,04,18,15,38,13.90
2024,04,18,15,39,13.90
2024,04,18,15,40,13.90
2024,04,18,15,41,13.90
2024,04,18,15,42,13.90
2024,04,18,15,43,14.00
2024,04,18,15,44,14.10
2024,04,18,15,45,14.10
2024,04,18,15,46,14.10
2024,04,18,15,47,14.00
2024,04,18,15,48,14.10
2024,04,18,15,49,14.30
2024,04,18,15,50,14.50
2024,04,18,15,51,14.60
2024,04,18,15,52,14.70
2024,04,18,15,53,14.80
2024,04,18,15,54,14.80
2024,04,18,15,55,14.70
2024,04,18,15,56,14.50
2024,04,18,15,57,14.40
2024,04,18,15,58,14.30
2024,04,18,15,59,14.30
2024,04,18,16,00,14.20
2024,04,18,16,01,14.10
2024,04,18,16,02,14.10
2024,04,18,16,03,14.20
2024,04,18,16,04,14.10
2024,04,18,16,05,14.10
2024,04,18,16,06,14.10
2024,04,18,16,07,14.10
2024,04,18,16,08,14.10
2024,04,18,16,09,14.20
2024,04,18,16,10,14.20
2024,04,18,16,11,14.20
2024,04,18,16,12,14.20
2024,04,18,16,13,14.10
2024,04,18,16,14,14.00
2024,04,18,16,15,13.90
2024,04,18,16,16,13.80
2024,04,18,16,17,13.70
2024,04,18,16,18,13.70
2024,04,18,16,19,13.70
2024,04,18,16,20,13.70
2024,04,18,16,21,13.80
2024,04,18,16,22,13.80
2024,04,18,16,23,13.80
2024,04,18,16,24,13.80
2024,04,18,16,25,13.90
2024,04,18,16,26,13.90
2024,04,18,16,27,13.90
2024,04,18,16,28,13.90
2024,04,18,16,29,13.90
2024,04,18,16,30,13.90
2024,04,18,16,31,13.80
2024,04,18,16,32,13.80
2024,04,18,16,33,14.00
2024,04,18,16,34,14.00
2024,04,18,16,35,14.10
2024,04,18,16,36,14.10
2024,04,18,16,37,14.10
2024,04,18,16,38,14.10
2024,04,18,16,39,14.20
2024,04,18,16,40,14.20
2024,04,18,16,41,14.20
2024,04,18,16,42,14.20
2024,04,18,16,43,14.10
2024,04,18,16,44,14.10
2024,04,18,16,45,14.10
2024,04,18,16,46,14.10
2024,04,18,16,47,14.10
2024,04,18,16,48,14.10
2024,04,18,16,49,14.10
2024,04,18,16,50,14.00
2024,04,18,16,51,13.90
2024,04,18,16,52,13.80
2024,04,18,16,53,13.70
2024,04,18,16,54,13.60
2024,04,18,16,55,13.60
2024,04,18,16,56,13.60
2024,04,18,16,57,13.60
2024,04,18,16,58,13.60
2024,04,18,16,59,13.60
2024,04,18,17,00,13.60
2024,04,18,17,01,13.50
2024,04,18,17,02,13.50
2024,04,18,17,03,13.60
2024,04,18,17,04,13.60
2024,04,18,17,05,13.60
2024,04,18,17,06,13.70
2024,04,18,17,07,13.70
2024,04,18,17,08,13.70
2024,04,18,17,09,13.70
2024,04,18,17,10,13.70
2024,04,18,17,11,13.60
2024,04,18,17,12,13.60
2024,04,18,17,13,13.50
2024,04,18,17,14,13.50
2024,04,18,17,15,13.50
2024,04,18,17,16,13.50
2024,04,18,17,17,13.60
2024,04,18,17,18,13.60
2024,04,18,17,19,13.60
2024,04,18,17,20,13.80
2024,04,18,17,21,13.90
2024,04,18,17,22,14.10
2024,04,18,17,23,14.30
2024,04,18,17,24,14.50
2024,04,18,17,25,14.60
2024,04,18,17,26,14.50
2024,04,18,17,27,14.60
2024,04,18,17,28,14.60
2024,04,18,17,29,14.60
2024,04,18,17,30,14.60
2024,04,18,17,31,14.50
2024,04,18,17,32,14.40
2024,04,18,17,33,14.40
2024,04,18,17,34,14.40
2024,04,18,17,35,14.30
2024,04,18,17,36,14.20
2024,04,18,17,37,14.10
2024,04,18,17,38,14.00
2024,04,18,17,39,13.80
2024,04,18,17,40,13.70
2024,04,18,17,41,13.60
2024,04,18,17,42,13.60
2024,04,18,17,43,13.60
2024,04,18,17,44,13.60
2024,04,18,17,45,13.70
2024,04,18,17,46,13.60
2024,04,18,17,47,13.60
2024,04,18,17,48,13.60
2024,04,18,17,49,13.60
2024,04,18,17,50,13.60
2024,04,18,17,51,13.60
2024,04,18,17,52,13.60
2024,04,18,17,53,13.60
2024,04,18,17,54,13.50
2024,04,18,17,55,13.60
2024,04,18,17,56,13.60
2024,04,18,17,57,13.70
2024,04,18,17,58,13.80
2024,04,18,17,59,13.80
2024,04,18,18,00,13.80
2024,04,18,18,01,13.70
2024,04,18,18,02,13.60
2024,04,18,18,03,13.50
2024,04,18,18,04,13.40
2024,04,18,18,05,13.30
2024,04,18,18,06,13.30
2024,04,18,18,07,13.30
2024,04,18,18,08,13.40
2024,04,18,18,09,13.40
2024,04,18,18,10,13.50
2024,04,18,18,11,13.60
2024,04,18,18,12,13.60
2024,04,18,18,13,13.60
2024,04,18,18,14,13.60
2024,04,18,18,15,13.60
2024,04,18,18,16,13.60
2024,04,18,18,17,13.60
2024,04,18,18,18,13.60
2024,04,18,18,19,13.60
2024,04,18,18,20,13.60
2024,04,18,18,21,13.60
2024,04,18,18,22,13.70
2024,04,18,18,23,13.70
2024,04,18,18,24,13.70
2024,04,18,18,25,13.70
2024,04,18,18,26,13.60
2024,04,18,18,27,13.50
2024,04,18,18,28,13.50
2024,04,18,18,29,13.40
2024,04,18,18,30,13.50
2024,04,18,18,31,13.50
2024,04,18,18,32,13.60
2024,04,18,18,33,13.70
2024,04,18,18,34,13.70
2024,04,18,18,35,13.70
2024,04,18,18,36,13.70
2024,04,18,18,37,13.60
2024,04,18,18,38,13.60
2024,04,18,18,39,13.50
2024,04,18,18,40,13.40
2024,04,18,18,41,13.40
2024,04,18,18,42,13.30
2024,04,18,18,43,13.30
2024,04,18,18,44,13.40
2024,04,18,18,45,13.40
2024,04,18,18,46,13.40